Weather History for KMCD - October, 2011

Change the Weather History Date:

Wednesday, October 12, 2011

  Actual Average Record
Temperature  
Mean Temperature 56 °F -  
Max Temperature 60 °F 53 °F 69 °F (1998)
Min Temperature 51 °F 41 °F 29 °F (1993)
Degree Days  
Heating Degree Days 10    
Growing Degree Days 6 (Base 50)    
Moisture  
Dew Point 51 °F    
Average Humidity 80    
Maximum Humidity 100    
Minimum Humidity 63    
Precipitation  
Precipitation 0.00 in - - ()
Sea Level Pressure  
Sea Level Pressure 29.90 in    
Wind  
Wind Speed 2 mph (ESE)    
Max Wind Speed 9 mph    
Max Gust Speed -    
Visibility 7 miles    
Events Fog    
Averages and records for this station are not official NWS values.
T = Trace of Precipitation, MM = Missing Value Source: NWS Daily Summary

Daily Weather History Graph

Daily Weather History Graph

Search for Another Location

Airport or City:

Trip Planner

Search our weather history database for the weather conditions in past years. The results will help you decide how hot, cold, wet, or windy it might be!

Date:

Astronomy

Oct. 12, 2011 Rise Set
Actual Time 7:50 AM EDT 6:58 PM EDT
Civil Twilight 7:20 AM EDT 7:28 PM EDT
Nautical Twilight 6:46 AM EDT 8:02 PM EDT
Astronomical Twilight 6:11 AM EDT 8:37 PM EDT
Moon 6:53 PM EDT (10/12) 8:30 AM EDT (10/12)
Length of Visible Light 12h 07m
Length of Day
11h 07m
Full, 100% of the Moon is Illuminated
Oct 12
Full
Oct 19
Last Quarter
Oct 26
New
Nov 2
First Quarter
Nov 10
Full

Hourly Weather History & Observations

Time (EDT) Temp. Dew Point Humidity Pressure Visibility Wind Dir Wind Speed Gust Speed Precip Events Conditions
12:14 AM 60.8 °F 48.2 °F 63% 29.97 in 10.0 mi South 3.5 mph - N/A   Unknown
12:35 AM 60.8 °F 48.2 °F 63% 29.97 in 10.0 mi Calm Calm - N/A   Unknown
12:54 AM 60.8 °F 48.2 °F 63% 29.97 in 10.0 mi Calm Calm - N/A   Unknown
1:14 AM 60.8 °F 48.2 °F 63% 29.96 in 10.0 mi Calm Calm - N/A   Unknown
1:35 AM 60.8 °F 48.2 °F 63% 29.96 in 10.0 mi Calm Calm - N/A   Unknown
1:54 AM 60.8 °F 48.2 °F 63% 29.96 in 10.0 mi SSE 3.5 mph - N/A   Unknown
2:15 AM 60.8 °F 48.2 °F 63% 29.96 in 10.0 mi Calm Calm - N/A   Unknown
2:34 AM 60.8 °F 48.2 °F 63% 29.96 in 10.0 mi South 3.5 mph - N/A   Unknown
2:54 AM 60.8 °F 48.2 °F 63% 29.95 in 10.0 mi South 3.5 mph - N/A   Unknown
3:34 AM 59.0 °F 48.2 °F 67% 29.94 in 10.0 mi Calm Calm - N/A   Unknown
4:14 AM 59.0 °F 48.2 °F 67% 29.94 in 10.0 mi Calm Calm - N/A   Unknown
4:34 AM 59.0 °F 48.2 °F 67% 29.93 in 10.0 mi South 3.5 mph - N/A   Unknown
4:55 AM 59.0 °F 48.2 °F 67% 29.93 in 10.0 mi South 3.5 mph - N/A   Unknown
5:14 AM 59.0 °F 48.2 °F 67% 29.93 in 10.0 mi South 3.5 mph - N/A   Unknown
5:34 AM 59.0 °F 48.2 °F 67% 29.93 in 10.0 mi SSE 3.5 mph - N/A   Unknown
5:55 AM 59.0 °F 46.4 °F 63% 29.93 in 10.0 mi Calm Calm - N/A   Unknown
6:14 AM 57.2 °F 48.2 °F 72% 29.93 in 10.0 mi South 3.5 mph - N/A   Unknown
6:34 AM 57.2 °F 46.4 °F 67% 29.93 in 10.0 mi South 4.6 mph - N/A   Unknown
6:54 AM 55.4 °F 46.4 °F 72% 29.93 in 10.0 mi Calm Calm - N/A   Unknown
7:14 AM 55.4 °F 48.2 °F 77% 29.93 in 10.0 mi Calm Calm - N/A   Unknown
7:35 AM 51.8 °F 46.4 °F 82% 29.94 in 10.0 mi Calm Calm - N/A   Unknown
7:54 AM 51.8 °F 46.4 °F 82% 29.94 in 10.0 mi Calm Calm - N/A   Unknown
8:14 AM 51.8 °F 48.2 °F 88% 29.94 in 5.0 mi SSE 3.5 mph - N/A   Mist
8:35 AM 57.2 °F 48.2 °F 72% 29.93 in 7.0 mi Calm Calm - N/A   Unknown
8:54 AM 59.0 °F 48.2 °F 67% 29.93 in 5.0 mi Calm Calm - N/A   Haze
9:14 AM 57.2 °F 50.0 °F 77% 29.94 in 10.0 mi Calm Calm - N/A   Unknown
9:35 AM 59.0 °F 50.0 °F 72% 29.93 in 10.0 mi Calm Calm - N/A   Unknown
10:15 AM 59.0 °F 51.8 °F 77% 29.93 in 10.0 mi Calm Calm - N/A   Unknown
10:34 AM 59.0 °F 51.8 °F 77% 29.93 in 10.0 mi Calm Calm - N/A   Unknown
11:15 AM 59.0 °F 51.8 °F 77% 29.92 in 10.0 mi Calm Calm - N/A   Unknown
11:34 AM 60.8 °F 53.6 °F 77% 29.92 in 10.0 mi Calm Calm - N/A   Unknown
11:55 AM 59.0 °F 51.8 °F 77% 29.92 in 10.0 mi Calm Calm - N/A   Unknown
12:14 PM 59.0 °F 53.6 °F 82% 29.92 in 7.0 mi Calm Calm - N/A   Unknown
12:34 PM 59.0 °F 53.6 °F 82% 29.91 in 10.0 mi Calm Calm - N/A   Unknown
12:55 PM 59.0 °F 53.6 °F 82% 29.91 in 7.0 mi East 5.8 mph - N/A   Unknown
1:14 PM 59.0 °F 53.6 °F 82% 29.90 in 7.0 mi East 5.8 mph - N/A   Unknown
1:34 PM 59.0 °F 53.6 °F 82% 29.89 in 5.0 mi East 4.6 mph - N/A   Mist
1:55 PM 55.4 °F 53.6 °F 94% 29.89 in 1.0 mi East 5.8 mph - N/A   Mist
2:14 PM 55.4 °F 53.6 °F 94% 29.88 in 0.8 mi East 5.8 mph - N/A   Overcast
2:35 PM 55.4 °F 55.4 °F 100% 29.87 in 0.5 mi East 4.6 mph - N/A Fog Fog
3:14 PM 57.2 °F 55.4 °F 94% 29.86 in 0.5 mi East 9.2 mph - N/A Fog Fog
3:35 PM 57.2 °F 55.4 °F 94% 29.85 in 0.5 mi East 6.9 mph - N/A Fog Fog
3:54 PM 57.2 °F 55.4 °F 94% 29.85 in 0.2 mi East 8.1 mph - N/A Fog Fog
4:14 PM 57.2 °F 55.4 °F 94% 29.84 in 0.2 mi East 6.9 mph - N/A Fog Fog
4:34 PM 57.2 °F 55.4 °F 94% 29.83 in 0.2 mi East 4.6 mph - N/A Fog Fog
5:15 PM 57.2 °F 55.4 °F 94% 29.82 in 1.0 mi East 4.6 mph - N/A   Overcast
5:34 PM 55.4 °F 55.4 °F 100% 29.82 in 1.0 mi East 5.8 mph - N/A   Overcast
5:55 PM 55.4 °F 55.4 °F 100% 29.82 in 0.8 mi East 5.8 mph - N/A   Overcast
6:14 PM 55.4 °F 55.4 °F 100% 29.82 in 0.8 mi East 8.1 mph - N/A   Overcast
6:34 PM 55.4 °F 55.4 °F 100% 29.82 in 0.8 mi East 5.8 mph - N/A   Overcast
6:55 PM 55.4 °F 55.4 °F 100% 29.81 in 1.0 mi East 3.5 mph - N/A   Overcast
7:14 PM 55.4 °F 55.4 °F 100% 29.81 in 1.2 mi East 6.9 mph - N/A   Mostly Cloudy
7:34 PM 55.4 °F 55.4 °F 100% 29.81 in 1.2 mi East 4.6 mph - N/A   Scattered Clouds
7:55 PM 55.4 °F 55.4 °F 100% 29.81 in 2.0 mi ESE 3.5 mph - N/A   Clear
8:14 PM 55.4 °F 55.4 °F 100% 29.81 in 5.0 mi Calm Calm - N/A   Clear
8:35 PM 57.2 °F 55.4 °F 94% 29.81 in 7.0 mi Calm Calm - N/A   Clear
8:54 PM 60.8 °F 51.8 °F 72% 29.81 in 10.0 mi Calm Calm - N/A   Clear
9:15 PM 60.8 °F 50.0 °F 68% 29.81 in 10.0 mi South 4.6 mph - N/A   Clear
9:34 PM 62.6 °F 50.0 °F 63% 29.81 in 10.0 mi SSE 5.8 mph - N/A   Clear
9:54 PM 60.8 °F 50.0 °F 68% 29.81 in 10.0 mi SSE 3.5 mph - N/A   Clear
10:15 PM 60.8 °F 50.0 °F 68% 29.82 in 10.0 mi Calm Calm - N/A   Clear
10:34 PM 59.0 °F 50.0 °F 72% 29.82 in 10.0 mi SSE 3.5 mph - N/A   Clear
10:54 PM 59.0 °F 50.0 °F 72% 29.81 in 10.0 mi Calm Calm - N/A   Clear
11:15 PM 59.0 °F 50.0 °F 72% 29.80 in 10.0 mi Calm Calm - N/A   Clear
11:34 PM 57.2 °F 50.0 °F 77% 29.80 in 10.0 mi Calm Calm - N/A   Clear
11:54 PM 57.2 °F 50.0 °F 77% 29.79 in 10.0 mi SSE 3.5 mph - N/A   Clear